| time (UTC) | temp F | wind direction | speed MPH | gust MPH | rain 1hr in | rain 24hr in | rain mn in | humidity % | barometer mb |
| 20260506015137 | 78 | 179 | 3.0 | 8.0 | 0.00 | 0.00 | 0.00 | 95 | 1005.7 |
| 20260506014635 | 78 | 142 | 2.0 | 2.0 | 0.00 | 0.00 | 0.00 | 94 | 1005.7 |
| 20260506014130 | 78 | 141 | 3.0 | 8.0 | 0.00 | 0.00 | 0.00 | 94 | 1005.5 |
| 20260506013629 | 78 | 161 | 5.0 | 6.0 | 0.00 | 0.00 | 0.00 | 94 | 1005.5 |
| 20260506013125 | 79 | 179 | 1.0 | 3.0 | 0.00 | 0.00 | 0.00 | 94 | 1005.2 |
| 20260506012622 | 79 | 140 | 5.0 | 7.0 | 0.00 | 0.00 | 0.00 | 93 | 1005.2 |
| 20260506012118 | 79 | 118 | 4.0 | 5.0 | 0.00 | 0.00 | 0.00 | 92 | 1005.1 |
| 20260506011616 | 79 | 118 | 4.0 | 5.0 | 0.00 | 0.00 | 0.00 | 92 | 1005.1 |
| 20260506011112 | 79 | 118 | 4.0 | 5.0 | 0.00 | 0.00 | 0.00 | 92 | 1005.0 |
| 20260506010606 | 79 | 164 | 5.0 | 6.0 | 0.00 | 0.00 | 0.00 | 92 | 1005.1 |
| 20260506005559 | 79 | 154 | 4.0 | 7.0 | 0.00 | 0.00 | 0.00 | 91 | 1005.1 |
| 20260506005055 | 79 | 190 | 3.0 | 5.0 | 0.00 | 0.00 | 0.00 | 91 | 1005.0 |
| 20260506004552 | 79 | 152 | 3.0 | 5.0 | 0.00 | 0.00 | 0.00 | 91 | 1005.0 |
| 20260506004049 | 80 | 199 | 4.0 | 5.0 | 0.00 | 0.00 | 0.00 | 90 | 1004.7 |
| 20260506003545 | 80 | 176 | 3.0 | 5.0 | 0.00 | 0.00 | 0.00 | 90 | 1004.6 |
| 20260506003042 | 80 | 145 | 3.0 | 6.0 | 0.00 | 0.00 | 0.00 | 89 | 1004.6 |
| 20260506002538 | 80 | 133 | 4.0 | 7.0 | 0.00 | 0.00 | 0.00 | 88 | 1004.7 |
| 20260506002034 | 80 | 201 | 5.0 | 6.0 | 0.00 | 0.00 | 0.00 | 88 | 1004.9 |
| 20260506001530 | 80 | 203 | 1.0 | 3.0 | 0.00 | 0.00 | 0.00 | 87 | 1004.6 |
| 20260506001028 | 80 | 169 | 5.0 | 6.0 | 0.00 | 0.00 | 0.00 | 87 | 1004.6 |
| 20260506000525 | 80 | 163 | 3.0 | 5.0 | 0.00 | 0.00 | 0.00 | 87 | 1004.6 |
| 20260506000023 | 80 | 171 | 7.0 | 9.0 | 0.00 | 0.00 | 0.00 | 86 | 1004.7 |
| 20260505235520 | 80 | 149 | 6.0 | 9.0 | 0.00 | 0.00 | 0.00 | 86 | 1004.9 |
| 20260505235017 | 80 | 175 | 5.0 | 6.0 | 0.00 | 0.00 | 0.00 | 86 | 1004.6 |
| 20260505234514 | 81 | 152 | 8.0 | 11.0 | 0.00 | 0.00 | 0.00 | 87 | 1004.4 |
| 20260505234011 | 81 | 150 | 4.0 | 5.0 | 0.00 | 0.00 | 0.00 | 87 | 1004.6 |
| 20260505233508 | 81 | 185 | 5.0 | 8.0 | 0.00 | 0.00 | 0.00 | 87 | 1004.6 |
| 20260505233005 | 81 | 163 | 4.0 | 6.0 | 0.00 | 0.00 | 0.00 | 87 | 1004.6 |
| 20260505232503 | 81 | 215 | 4.0 | 6.0 | 0.00 | 0.00 | 0.00 | 87 | 1004.5 |
| 20260505232000 | 81 | 153 | 7.0 | 8.0 | 0.00 | 0.00 | 0.00 | 87 | 1004.5 |
| 20260505231457 | 81 | 141 | 2.0 | 3.0 | 0.00 | 0.00 | 0.00 | 87 | 1004.8 |
| 20260505230956 | 81 | 141 | 2.0 | 3.0 | 0.00 | 0.00 | 0.00 | 87 | 1004.7 |
| 20260505230453 | 82 | 129 | 5.0 | 9.0 | 0.00 | 0.00 | 0.00 | 87 | 1004.7 |
| 20260505225949 | 81 | 151 | 8.0 | 11.0 | 0.00 | 0.00 | 0.00 | 86 | 1004.8 |
| 20260505225446 | 82 | 190 | 7.0 | 8.0 | 0.00 | 0.00 | 0.00 | 87 | 1004.6 |
| 20260505224942 | 82 | 134 | 8.0 | 10.0 | 0.00 | 0.00 | 0.00 | 86 | 1004.7 |
| 20260505224439 | 82 | 159 | 5.0 | 15.0 | 0.00 | 0.00 | 0.00 | 86 | 1004.9 |
| 20260505223937 | 82 | 149 | 5.0 | 7.0 | 0.00 | 0.00 | 0.00 | 87 | 1004.8 |
| 20260505223433 | 82 | 157 | 7.0 | 10.0 | 0.00 | 0.00 | 0.00 | 87 | 1005.0 |
| 20260505222930 | 82 | 156 | 7.0 | 9.0 | 0.00 | 0.00 | 0.00 | 87 | 1004.7 |
| 20260505222426 | 82 | 137 | 5.0 | 7.0 | 0.00 | 0.00 | 0.00 | 87 | 1004.7 |
| 20260505221922 | 83 | 180 | 6.0 | 8.0 | 0.00 | 0.00 | 0.00 | 87 | 1004.7 |
| 20260505221420 | 82 | 176 | 5.0 | 7.0 | 0.00 | 0.00 | 0.00 | 87 | 1004.8 |
| 20260505220917 | 82 | 156 | 3.0 | 5.0 | 0.00 | 0.00 | 0.00 | 87 | 1004.7 |
| 20260505220413 | 82 | 127 | 4.0 | 8.0 | 0.00 | 0.00 | 0.00 | 87 | 1005.0 |
| 20260505215911 | 82 | 190 | 3.0 | 5.0 | 0.00 | 0.00 | 0.00 | 87 | 1005.0 |
| 20260505215409 | 82 | 197 | 6.0 | 7.0 | 0.00 | 0.00 | 0.00 | 86 | 1005.1 |
| 20260505214907 | 83 | 155 | 7.0 | 10.0 | 0.00 | 0.00 | 0.00 | 86 | 1005.0 |
| 20260505214404 | 82 | 210 | 6.0 | 8.0 | 0.00 | 0.00 | 0.00 | 86 | 1004.9 |
| 20260505213901 | 83 | 185 | 5.0 | 9.0 | 0.00 | 0.00 | 0.00 | 86 | 1005.1 |
| 20260505213359 | 83 | 143 | 11.0 | 11.0 | 0.00 | 0.00 | 0.00 | 85 | 1005.4 |
| 20260505212855 | 83 | 147 | 3.0 | 3.0 | 0.00 | 0.00 | 0.00 | 86 | 1005.5 |
| 20260505212352 | 83 | 162 | 5.0 | 5.0 | 0.00 | 0.00 | 0.00 | 86 | 1005.5 |
| 20260505211848 | 82 | 140 | 7.0 | 9.0 | 0.00 | 0.00 | 0.00 | 86 | 1005.4 |
| 20260505211346 | 82 | 140 | 9.0 | 16.0 | 0.00 | 0.00 | 0.00 | 85 | 1005.4 |
| 20260505210842 | 82 | 220 | 6.0 | 9.0 | 0.00 | 0.00 | 0.00 | 86 | 1005.5 |
| 20260505210339 | 82 | 178 | 5.0 | 10.0 | 0.00 | 0.00 | 0.00 | 86 | 1005.7 |
| 20260505205836 | 82 | 145 | 3.0 | 6.0 | 0.00 | 0.00 | 0.00 | 87 | 1005.7 |
| 20260505205334 | 82 | 198 | 8.0 | 10.0 | 0.00 | 0.00 | 0.00 | 86 | 1005.8 |
| 20260505204831 | 82 | 208 | 5.0 | 7.0 | 0.00 | 0.00 | 0.00 | 86 | 1005.8 |
| 20260505204329 | 82 | 154 | 3.0 | 5.0 | 0.00 | 0.00 | 0.00 | 87 | 1006.0 |
| 20260505203826 | 82 | 178 | 7.0 | 13.0 | 0.00 | 0.00 | 0.00 | 87 | 1005.9 |
| 20260505203322 | 82 | 160 | 4.0 | 7.0 | 0.00 | 0.00 | 0.00 | 87 | 1006.0 |
| 20260505202818 | 82 | 151 | 4.0 | 11.0 | 0.00 | 0.00 | 0.00 | 87 | 1006.4 |
| 20260505202315 | 82 | 197 | 5.0 | 6.0 | 0.00 | 0.00 | 0.00 | 87 | 1006.2 |
| 20260505201811 | 82 | 197 | 5.0 | 6.0 | 0.00 | 0.00 | 0.00 | 87 | 1006.2 |
| 20260505201309 | 82 | 197 | 5.0 | 6.0 | 0.00 | 0.00 | 0.00 | 87 | 1006.4 |
| 20260505200807 | 82 | 197 | 5.0 | 6.0 | 0.00 | 0.00 | 0.00 | 87 | 1006.2 |
| 20260505200304 | 83 | 223 | 7.0 | 9.0 | 0.00 | 0.00 | 0.00 | 85 | 1006.2 |
| 20260505195759 | 83 | 212 | 5.0 | 8.0 | 0.00 | 0.00 | 0.00 | 85 | 1006.4 |
| 20260505195257 | 84 | 208 | 4.0 | 7.0 | 0.00 | 0.00 | 0.00 | 85 | 1006.4 |
| 20260505194754 | 83 | 202 | 5.0 | 8.0 | 0.00 | 0.00 | 0.00 | 86 | 1006.4 |
| 20260505194250 | 83 | 193 | 3.0 | 7.0 | 0.00 | 0.00 | 0.00 | 86 | 1006.4 |
| 20260505193746 | 82 | 188 | 6.0 | 8.0 | 0.00 | 0.00 | 0.00 | 86 | 1006.5 |
| 20260505193244 | 82 | 209 | 7.0 | 11.0 | 0.00 | 0.00 | 0.00 | 86 | 1006.5 |
| 20260505192742 | 82 | 126 | 4.0 | 8.0 | 0.00 | 0.00 | 0.00 | 87 | 1006.6 |
| 20260505192239 | 82 | 206 | 5.0 | 8.0 | 0.00 | 0.00 | 0.00 | 87 | 1006.7 |
| 20260505191737 | 82 | 200 | 2.0 | 10.0 | 0.00 | 0.00 | 0.00 | 87 | 1006.7 |
| 20260505191236 | 82 | 187 | 4.0 | 8.0 | 0.00 | 0.00 | 0.00 | 88 | 1006.5 |
| 20260505190731 | 82 | 197 | 3.0 | 6.0 | 0.00 | 0.00 | 0.00 | 88 | 1006.5 |
| 20260505190232 | 82 | 155 | 4.0 | 11.0 | 0.00 | 0.00 | 0.00 | 87 | 1006.7 |
| 20260505185728 | 81 | 195 | 3.0 | 6.0 | 0.00 | 0.00 | 0.00 | 88 | 1006.7 |
| 20260505185225 | 81 | 197 | 2.0 | 8.0 | 0.00 | 0.00 | 0.00 | 88 | 1006.8 |
| 20260505184721 | 81 | 203 | 6.0 | 9.0 | 0.00 | 0.00 | 0.00 | 88 | 1006.6 |
| 20260505184218 | 81 | 185 | 5.0 | 9.0 | 0.00 | 0.00 | 0.00 | 87 | 1006.6 |
| 20260505183715 | 81 | 187 | 7.0 | 13.0 | 0.00 | 0.00 | 0.00 | 87 | 1006.9 |
| 20260505183213 | 81 | 195 | 3.0 | 11.0 | 0.00 | 0.00 | 0.00 | 88 | 1006.8 |
| 20260505182708 | 81 | 148 | 7.0 | 13.0 | 0.00 | 0.00 | 0.00 | 89 | 1007.0 |
| 20260505182206 | 80 | 220 | 4.0 | 5.0 | 0.00 | 0.00 | 0.00 | 90 | 1006.8 |
| 20260505181702 | 80 | 224 | 4.0 | 6.0 | 0.00 | 0.00 | 0.00 | 89 | 1007.1 |
| 20260505181200 | 81 | 207 | 5.0 | 7.0 | 0.00 | 0.00 | 0.00 | 89 | 1007.1 |
| 20260505180655 | 81 | 192 | 5.0 | 6.0 | 0.00 | 0.00 | 0.00 | 89 | 1007.2 |
| 20260505180153 | 80 | 177 | 3.0 | 9.0 | 0.00 | 0.00 | 0.00 | 89 | 1007.2 |
| 20260505175649 | 80 | 213 | 3.0 | 8.0 | 0.00 | 0.00 | 0.00 | 89 | 1007.3 |
| 20260505175145 | 81 | 201 | 6.0 | 7.0 | 0.00 | 0.00 | 0.00 | 89 | 1007.1 |
| 20260505174642 | 80 | 151 | 3.0 | 8.0 | 0.00 | 0.00 | 0.00 | 89 | 1007.2 |
| 20260505174138 | 80 | 225 | 6.0 | 8.0 | 0.00 | 0.00 | 0.00 | 90 | 1007.3 |
| 20260505173635 | 80 | 204 | 3.0 | 5.0 | 0.00 | 0.00 | 0.00 | 90 | 1007.4 |
| 20260505173132 | 80 | 164 | 4.0 | 8.0 | 0.00 | 0.00 | 0.00 | 90 | 1007.3 |
| 20260505172630 | 80 | 188 | 5.0 | 8.0 | 0.00 | 0.00 | 0.00 | 91 | 1007.3 |
| 20260505172126 | 79 | 179 | 3.0 | 7.0 | 0.00 | 0.00 | 0.00 | 91 | 1007.3 |
| 20260505171621 | 79 | 208 | 5.0 | 7.0 | 0.00 | 0.00 | 0.00 | 91 | 1007.2 |
| 20260505171118 | 79 | 173 | 3.0 | 8.0 | 0.00 | 0.00 | 0.00 | 91 | 1007.2 |
| 20260505170615 | 79 | 197 | 2.0 | 5.0 | 0.00 | 0.00 | 0.00 | 92 | 1007.5 |
| 20260505170111 | 79 | 197 | 4.0 | 7.0 | 0.00 | 0.00 | 0.00 | 92 | 1007.3 |
| 20260505165606 | 79 | 212 | 2.0 | 10.0 | 0.00 | 0.00 | 0.00 | 92 | 1007.5 |
| 20260505165103 | 79 | 145 | 3.0 | 9.0 | 0.00 | 0.00 | 0.00 | 91 | 1007.7 |
| 20260505164558 | 79 | 154 | 5.0 | 7.0 | 0.00 | 0.00 | 0.00 | 91 | 1007.4 |
| 20260505164056 | 79 | 158 | 5.0 | 8.0 | 0.00 | 0.00 | 0.00 | 91 | 1007.5 |
| 20260505163555 | 80 | 206 | 3.0 | 5.0 | 0.00 | 0.00 | 0.00 | 91 | 1007.3 |
| 20260505163051 | 79 | 202 | 5.0 | 9.0 | 0.00 | 0.00 | 0.00 | 91 | 1007.4 |
| 20260505162549 | 80 | 145 | 4.0 | 7.0 | 0.00 | 0.00 | 0.00 | 91 | 1007.2 |
| 20260505162047 | 79 | 197 | 5.0 | 9.0 | 0.00 | 0.00 | 0.00 | 92 | 1007.3 |
| 20260505161544 | 79 | 212 | 4.0 | 6.0 | 0.00 | 0.00 | 0.00 | 93 | 1007.4 |
| 20260505161041 | 79 | 183 | 3.0 | 7.0 | 0.00 | 0.00 | 0.00 | 93 | 1007.4 |
| 20260505160539 | 78 | 218 | 8.0 | 13.0 | 0.00 | 0.00 | 0.00 | 93 | 1007.4 |
| 20260505153015 | 78 | 190 | 4.0 | 6.0 | 0.00 | 0.00 | 0.00 | 95 | 1007.1 |
| 20260505152512 | 77 | 193 | 2.0 | 7.0 | 0.00 | 0.00 | 0.00 | 95 | 1007.2 |
| 20260505152008 | 77 | 206 | 3.0 | 10.0 | 0.00 | 0.00 | 0.00 | 95 | 1007.1 |
| 20260505151503 | 77 | 193 | 5.0 | 8.0 | 0.00 | 0.00 | 0.00 | 95 | 1007.2 |
| 20260505151000 | 77 | 165 | 5.0 | 8.0 | 0.00 | 0.00 | 0.00 | 96 | 1007.3 |
| 20260505150457 | 77 | 212 | 5.0 | 8.0 | 0.00 | 0.00 | 0.00 | 96 | 1007.0 |
| 20260505140427 | 75 | 155 | 2.0 | 7.0 | 0.00 | 0.00 | 0.00 | 99 | 1006.9 |
| 20260505124840 | 72 | 168 | 1.0 | 3.0 | 0.00 | 0.00 | 0.00 | 99 | 1006.9 |
| 20260505124337 | 72 | 194 | 0.0 | 1.0 | 0.00 | 0.00 | 0.00 | 99 | 1006.9 |
| 20260505123833 | 72 | 191 | 1.0 | 3.0 | 0.00 | 0.00 | 0.00 | 99 | 1006.7 |
| 20260505123330 | 71 | 174 | 1.0 | 2.0 | 0.00 | 0.00 | 0.00 | 99 | 1006.7 |
| 20260505122826 | 71 | 179 | 0.0 | 1.0 | 0.00 | 0.00 | 0.00 | 99 | 1006.8 |
| 20260505122324 | 71 | 177 | 0.0 | 2.0 | 0.00 | 0.00 | 0.00 | 99 | 1006.8 |
| 20260505121820 | 71 | 171 | 0.0 | 2.0 | 0.00 | 0.00 | 0.00 | 99 | 1006.6 |
| 20260505121317 | 71 | 181 | 0.0 | 2.0 | 0.00 | 0.00 | 0.00 | 99 | 1006.7 |
| 20260505120813 | 71 | 177 | 0.0 | 2.0 | 0.00 | 0.00 | 0.00 | 99 | 1006.6 |
| 20260505120309 | 71 | 172 | 0.0 | 1.0 | 0.00 | 0.00 | 0.00 | 99 | 1006.2 |
| 20260505115808 | 71 | 151 | 2.0 | 2.0 | 0.00 | 0.00 | 0.00 | 99 | 1006.3 |
| 20260505115306 | 70 | 142 | 2.0 | 3.0 | 0.00 | 0.00 | 0.00 | 99 | 1006.3 |
| 20260505114803 | 70 | 175 | 0.0 | 2.0 | 0.00 | 0.00 | 0.00 | 99 | 1006.4 |
| 20260505114300 | 71 | 180 | 1.0 | 2.0 | 0.00 | 0.00 | 0.00 | 99 | 1006.6 |
| 20260505113756 | 70 | 174 | 0.0 | 1.0 | 0.00 | 0.00 | 0.00 | 99 | 1006.7 |
| 20260505113253 | 71 | 191 | 0.0 | 2.0 | 0.00 | 0.00 | 0.00 | 99 | 1006.5 |
| 20260505112748 | 71 | 159 | 3.0 | 3.0 | 0.00 | 0.00 | 0.00 | 99 | 1006.5 |
| 20260505112246 | 71 | 227 | 1.0 | 6.0 | 0.00 | 0.00 | 0.00 | 99 | 1006.4 |
| 20260505111741 | 70 | 181 | 1.0 | 3.0 | 0.00 | 0.00 | 0.00 | 99 | 1006.2 |
| 20260505111237 | 70 | 176 | 0.0 | 2.0 | 0.00 | 0.00 | 0.00 | 99 | 1006.4 |
| 20260505110733 | 70 | 191 | 2.0 | 2.0 | 0.00 | 0.00 | 0.00 | 99 | 1006.3 |
| 20260505110231 | 70 | 170 | 0.0 | 1.0 | 0.00 | 0.00 | 0.00 | 99 | 1006.4 |
| 20260505102207 | 69 | 188 | 0.0 | 0.0 | 0.00 | 0.00 | 0.00 | 99 | 1006.6 |
| 20260505101705 | 69 | 184 | 0.0 | 0.0 | 0.00 | 0.00 | 0.00 | 99 | 1006.5 |
| 20260505101201 | 69 | 180 | 0.0 | 0.0 | 0.00 | 0.00 | 0.00 | 99 | 1006.5 |
| 20260505100657 | 69 | 180 | 0.0 | 1.0 | 0.00 | 0.00 | 0.00 | 99 | 1006.5 |
| 20260505100154 | 69 | 178 | 0.0 | 1.0 | 0.00 | 0.00 | 0.00 | 99 | 1006.5 |
| 20260505095650 | 69 | 183 | 0.0 | 1.0 | 0.00 | 0.00 | 0.00 | 99 | 1006.7 |
| 20260505095148 | 69 | 181 | 0.0 | 2.0 | 0.00 | 0.00 | 0.00 | 99 | 1006.7 |
| 20260505094643 | 69 | 167 | 0.0 | 1.0 | 0.00 | 0.00 | 0.00 | 99 | 1006.7 |
| 20260505094140 | 69 | 177 | 0.0 | 2.0 | 0.00 | 0.00 | 0.00 | 99 | 1006.6 |
| 20260505093636 | 69 | 165 | 0.0 | 0.0 | 0.00 | 0.00 | 0.00 | 99 | 1006.7 |
| 20260505093134 | 69 | 167 | 0.0 | 0.0 | 0.00 | 0.00 | 0.00 | 99 | 1006.6 |
| 20260505092630 | 69 | 179 | 0.0 | 2.0 | 0.00 | 0.00 | 0.00 | 99 | 1006.8 |
| 20260505092129 | 69 | 171 | 1.0 | 2.0 | 0.00 | 0.00 | 0.00 | 99 | 1006.9 |
| 20260505091625 | 69 | 175 | 1.0 | 1.0 | 0.00 | 0.00 | 0.00 | 99 | 1006.8 |
| 20260505091124 | 69 | 175 | 0.0 | 1.0 | 0.00 | 0.00 | 0.00 | 99 | 1006.8 |
| 20260505090621 | 70 | 186 | 0.0 | 1.0 | 0.00 | 0.00 | 0.00 | 99 | 1007.0 |
| 20260505090119 | 70 | 181 | 1.0 | 3.0 | 0.00 | 0.00 | 0.00 | 99 | 1006.9 |
| 20260505085616 | 70 | 165 | 0.0 | 3.0 | 0.00 | 0.00 | 0.00 | 99 | 1006.9 |
| 20260505085115 | 70 | 168 | 0.0 | 2.0 | 0.00 | 0.00 | 0.00 | 99 | 1006.7 |
| 20260505084612 | 70 | 199 | 2.0 | 2.0 | 0.00 | 0.00 | 0.00 | 99 | 1007.1 |
| 20260505084110 | 70 | 179 | 0.0 | 1.0 | 0.00 | 0.00 | 0.00 | 99 | 1007.0 |
| 20260505083608 | 70 | 183 | 0.0 | 1.0 | 0.00 | 0.00 | 0.00 | 99 | 1007.0 |
| 20260505083104 | 70 | 169 | 0.0 | 2.0 | 0.00 | 0.00 | 0.00 | 99 | 1007.2 |
| 20260505082559 | 70 | 165 | 0.0 | 2.0 | 0.00 | 0.00 | 0.00 | 99 | 1007.2 |
| 20260505082057 | 70 | 195 | 0.0 | 2.0 | 0.00 | 0.00 | 0.00 | 99 | 1007.1 |
| 20260505081553 | 70 | 180 | 1.0 | 1.0 | 0.00 | 0.00 | 0.00 | 99 | 1007.2 |
| 20260505081050 | 70 | 191 | 0.0 | 2.0 | 0.00 | 0.00 | 0.00 | 99 | 1007.3 |
| 20260505080546 | 70 | 195 | 0.0 | 1.0 | 0.00 | 0.00 | 0.00 | 99 | 1007.2 |
| 20260505080043 | 70 | 178 | 1.0 | 2.0 | 0.00 | 0.00 | 0.00 | 99 | 1007.4 |
| 20260505075539 | 70 | 197 | 1.0 | 3.0 | 0.00 | 0.00 | 0.00 | 99 | 1007.4 |
| 20260505075036 | 70 | 175 | 0.0 | 5.0 | 0.00 | 0.00 | 0.00 | 99 | 1007.2 |
| 20260505074533 | 70 | 153 | 0.0 | 6.0 | 0.00 | 0.00 | 0.00 | 99 | 1007.2 |
| 20260505074030 | 70 | 194 | 0.0 | 5.0 | 0.00 | 0.00 | 0.00 | 99 | 1007.3 |
| 20260505073527 | 70 | 180 | 1.0 | 7.0 | 0.00 | 0.00 | 0.00 | 99 | 1007.3 |
| 20260505073026 | 70 | 184 | 2.0 | 5.0 | 0.00 | 0.00 | 0.00 | 99 | 1007.3 |
| 20260505072521 | 70 | 187 | 1.0 | 3.0 | 0.00 | 0.00 | 0.00 | 98 | 1007.3 |
| 20260505072018 | 70 | 196 | 3.0 | 5.0 | 0.00 | 0.00 | 0.00 | 98 | 1007.4 |
| 20260505071513 | 70 | 194 | 1.0 | 5.0 | 0.00 | 0.00 | 0.00 | 98 | 1007.6 |
| 20260505071012 | 70 | 202 | 2.0 | 6.0 | 0.00 | 0.00 | 0.00 | 98 | 1007.7 |
| 20260505070509 | 70 | 161 | 1.0 | 6.0 | 0.00 | 0.00 | 0.00 | 98 | 1007.8 |
| 20260505070005 | 70 | 207 | 2.0 | 5.0 | 0.00 | 0.00 | 0.00 | 98 | 1008.1 |
| 20260505065501 | 70 | 182 | 3.0 | 7.0 | 0.00 | 0.00 | 0.00 | 98 | 1008.0 |
| 20260505064957 | 70 | 163 | 3.0 | 3.0 | 0.00 | 0.00 | 0.00 | 97 | 1007.9 |
| 20260505064454 | 70 | 165 | 2.0 | 3.0 | 0.00 | 0.00 | 0.00 | 97 | 1008.1 |
| 20260505063953 | 70 | 153 | 2.0 | 7.0 | 0.00 | 0.00 | 0.00 | 97 | 1008.1 |
| 20260505063449 | 70 | 177 | 3.0 | 3.0 | 0.00 | 0.00 | 0.00 | 97 | 1008.0 |
| 20260505062945 | 70 | 188 | 1.0 | 7.0 | 0.00 | 0.00 | 0.00 | 97 | 1008.4 |
| 20260505062442 | 70 | 160 | 2.0 | 6.0 | 0.00 | 0.00 | 0.00 | 97 | 1008.1 |
| 20260505061939 | 70 | 168 | 4.0 | 5.0 | 0.00 | 0.00 | 0.00 | 96 | 1008.1 |
| 20260505061437 | 70 | 179 | 2.0 | 5.0 | 0.00 | 0.00 | 0.00 | 96 | 1008.3 |
| 20260505060935 | 70 | 157 | 3.0 | 5.0 | 0.00 | 0.00 | 0.00 | 96 | 1008.6 |
| 20260505060432 | 70 | 208 | 3.0 | 7.0 | 0.00 | 0.00 | 0.00 | 96 | 1008.4 |
| 20260505055927 | 70 | 196 | 2.0 | 5.0 | 0.00 | 0.00 | 0.00 | 96 | 1008.4 |
| 20260505055424 | 70 | 170 | 3.0 | 5.0 | 0.00 | 0.00 | 0.00 | 96 | 1008.5 |
| 20260505054921 | 70 | 158 | 2.0 | 5.0 | 0.00 | 0.00 | 0.00 | 96 | 1008.5 |
| 20260505054418 | 70 | 193 | 3.0 | 6.0 | 0.00 | 0.00 | 0.00 | 95 | 1008.4 |
| 20260505053916 | 70 | 180 | 4.0 | 6.0 | 0.00 | 0.00 | 0.00 | 95 | 1008.4 |
| 20260505053413 | 70 | 201 | 1.0 | 6.0 | 0.00 | 0.00 | 0.00 | 95 | 1008.7 |
| 20260505052910 | 70 | 161 | 3.0 | 5.0 | 0.00 | 0.00 | 0.00 | 95 | 1008.8 |
| 20260505052406 | 70 | 203 | 3.0 | 7.0 | 0.00 | 0.00 | 0.00 | 95 | 1009.2 |
| 20260505051904 | 70 | 191 | 0.0 | 5.0 | 0.00 | 0.00 | 0.00 | 95 | 1008.9 |
| 20260505051401 | 70 | 195 | 3.0 | 5.0 | 0.00 | 0.00 | 0.00 | 95 | 1009.0 |
| 20260505050859 | 70 | 200 | 1.0 | 5.0 | 0.00 | 0.00 | 0.00 | 95 | 1009.1 |
| 20260505050357 | 70 | 195 | 0.0 | 3.0 | 0.00 | 0.00 | 0.00 | 95 | 1008.8 |
| 20260505041325 | 71 | 181 | 0.0 | 3.0 | 0.00 | 0.00 | 0.00 | 92 | 1009.2 |
| 20260505040821 | 71 | 202 | 1.0 | 2.0 | 0.00 | 0.00 | 0.00 | 92 | 1009.3 |
| 20260505040319 | 71 | 132 | 3.0 | 6.0 | 0.00 | 0.00 | 0.00 | 92 | 1009.3 |
| 20260505035816 | 71 | 171 | 2.0 | 5.0 | 0.00 | 0.00 | 0.00 | 92 | 1008.9 |
| 20260505035311 | 71 | 155 | 3.0 | 5.0 | 0.00 | 0.00 | 0.00 | 92 | 1009.0 |
| 20260505034809 | 71 | 166 | 3.0 | 5.0 | 0.00 | 0.00 | 0.00 | 92 | 1009.2 |
| 20260505034305 | 71 | 193 | 3.0 | 6.0 | 0.00 | 0.00 | 0.00 | 91 | 1009.3 |
| 20260505033803 | 71 | 174 | 0.0 | 5.0 | 0.00 | 0.00 | 0.00 | 91 | 1009.2 |
| 20260505033259 | 72 | 155 | 3.0 | 5.0 | 0.00 | 0.00 | 0.00 | 91 | 1009.1 |
| 20260505032758 | 72 | 188 | 2.0 | 3.0 | 0.00 | 0.00 | 0.00 | 91 | 1009.1 |
| 20260505032253 | 72 | 160 | 3.0 | 7.0 | 0.00 | 0.00 | 0.00 | 91 | 1009.4 |
| 20260505031750 | 72 | 161 | 6.0 | 9.0 | 0.00 | 0.00 | 0.00 | 91 | 1009.2 |
| 20260505031247 | 72 | 164 | 3.0 | 6.0 | 0.00 | 0.00 | 0.00 | 90 | 1009.2 |
| 20260505030744 | 72 | 165 | 2.0 | 3.0 | 0.00 | 0.00 | 0.00 | 90 | 1009.0 |
| 20260505030240 | 72 | 176 | 2.0 | 3.0 | 0.00 | 0.00 | 0.00 | 90 | 1009.3 |
| 20260505025736 | 72 | 168 | 2.0 | 5.0 | 0.00 | 0.00 | 0.00 | 89 | 1009.2 |
| 20260505025234 | 72 | 171 | 3.0 | 6.0 | 0.00 | 0.00 | 0.00 | 89 | 1009.2 |
| 20260505024732 | 72 | 176 | 1.0 | 8.0 | 0.00 | 0.00 | 0.00 | 89 | 1009.1 |
| 20260505024229 | 72 | 161 | 3.0 | 7.0 | 0.00 | 0.00 | 0.00 | 89 | 1009.1 |
| 20260505023726 | 73 | 167 | 5.0 | 8.0 | 0.00 | 0.00 | 0.00 | 89 | 1008.9 |
| 20260505023224 | 73 | 204 | 3.0 | 7.0 | 0.00 | 0.00 | 0.00 | 88 | 1008.9 |
| 20260505022721 | 73 | 165 | 2.0 | 7.0 | 0.00 | 0.00 | 0.00 | 88 | 1009.0 |
| 20260505022218 | 73 | 160 | 4.0 | 5.0 | 0.00 | 0.00 | 0.00 | 88 | 1008.8 |
| 20260505021714 | 73 | 154 | 9.0 | 10.0 | 0.00 | 0.00 | 0.00 | 88 | 1008.8 |
| 20260505021212 | 73 | 163 | 3.0 | 8.0 | 0.00 | 0.00 | 0.00 | 88 | 1009.0 |
| 20260505020707 | 73 | 188 | 3.0 | 7.0 | 0.00 | 0.00 | 0.00 | 87 | 1008.8 |
| 20260505020203 | 73 | 158 | 4.0 | 7.0 | 0.00 | 0.00 | 0.00 | 87 | 1008.8 |
| 20260505015701 | 73 | 162 | 6.0 | 8.0 | 0.00 | 0.00 | 0.00 | 87 | 1008.8 |